{"data":{"norad_id":55844,"intl_designator":"2023-032A","name":"HORUS 2","alt_names":[],"object_type":"PAYLOAD","status":"ACTIVE","operator":null,"country":"EGYP","launch_date":"2023-03-13","launch_site_code":"JSC","launch_vehicle":null,"mission":null,"orbit_class":"UNKNOWN","rcs_meters":null,"size_class":null,"mass_kg":null,"dimensions":null,"purposes":[],"wikipedia_slug":null,"has_3d_model":false,"image_url":null,"decayed_at":null,"tle_current":{"epoch":"2026-05-25T04:46:34.589280Z","epoch_age_seconds":51011,"freshness":"FRESH","line1":"1 55844U 23032A   26145.19901145  .00005927  00000+0  25125-3 0  9994","line2":"2 55844  97.3536 221.0598 0003311 123.0666 237.0889 15.23501551177987","mean_motion":15.23501551,"eccentricity":0.0003311,"inclination_deg":97.3536,"raan_deg":221.0598,"arg_perigee_deg":123.0666,"mean_anomaly_deg":237.0889,"bstar":0.00025125,"rev_number":17798,"period_min":94.519102987116,"perigee_km":493.01288416159,"apogee_km":497.56446664384,"semimajor_km":6873.4256754027,"source":"CELESTRAK","updated_at":"2026-05-25T13:37:59.211611Z"}}}